GEFSCGP_500_meanwind_000.txt.gz
Wind_Speed
22 20 19 20 21 22 24 25 23 23 21 18 17 20 22 27 28 29 33 31 23 22 28 28 29 29 30 30 29 27 28 28 30 34 36 37 38 39 41 44 45 46 47 47
22 21 22 22 22 23 24 22 18 18 21 21 21 24 27 30 31 35 37 34 29 26 24 25 29 31 32 32 32 31 31 33 36 40 43 44 45 48 51 53 53 53 54 54
22 21 23 23 24 26 21 20 20 22 25 28 30 30 32 28 30 34 36 34 30 27 24 26 32 35 37 38 40 42 42 40 42 46 48 49 53 58 60 59 58 56 53 52
23 23 25 25 25 26 23 22 24 25 27 32 35 39 37 33 37 33 34 34 32 29 27 29 35 38 39 40 45 48 51 49 50 53 55 57 60 61 58 54 51 49 49 54
21 22 23 26 27 25 24 24 25 26 26 28 30 39 40 35 32 29 30 32 33 30 30 33 38 42 43 44 47 50 54 56 59 58 59 60 60 59 59 59 56 53 52 55
18 20 23 24 23 21 21 22 23 25 27 27 24 29 32 29 29 28 29 31 32 33 35 37 40 44 46 48 49 50 55 59 61 62 63 64 65 63 67 70 72 67 60 62
20 20 23 25 26 25 24 24 26 28 27 26 21 23 28 30 30 31 31 33 35 36 38 38 39 41 44 47 53 57 60 61 64 67 70 74 75 72 75 77 75 73 69 74
23 24 25 28 28 27 29 30 28 29 26 24 22 24 27 32 34 35 33 33 38 39 39 41 45 48 52 56 60 63 64 70 74 76 75 77 78 78 74 71 71 73 73 74
20 20 23 26 29 31 33 31 29 30 30 27 24 25 28 32 31 35 35 37 40 43 45 48 55 59 59 60 64 69 73 77 78 75 75 74 71 69 63 63 73 71 69 72
26 22 23 24 27 29 31 33 32 32 34 29 23 22 27 33 36 40 42 42 44 49 53 57 61 62 65 69 71 71 72 75 78 72 69 73 71 77 79 76 73 66 61 62
35 34 28 26 29 32 31 35 38 40 38 31 24 26 27 33 35 41 46 48 51 55 59 62 66 69 72 74 73 73 75 77 77 74 72 71 70 69 66 59 52 48 51 53
40 39 35 29 27 30 34 37 37 35 33 32 30 31 32 39 44 48 52 55 59 62 64 67 69 73 76 77 76 76 73 66 60 56 52 50 48 49 50 53 52 50 52 52
38 40 38 36 32 32 33 34 34 33 32 31 32 36 38 42 47 51 55 58 61 65 67 69 72 75 74 72 68 64 56 54 53 51 46 45 46 48 53 52 52 55 54 49
38 40 40 40 37 31 29 29 30 31 33 35 36 39 43 46 48 52 57 60 63 68 69 68 66 64 63 61 58 55 54 53 49 45 43 47 52 57 58 54 54 53 46 40
38 40 40 38 34 32 29 28 29 31 35 37 39 41 44 46 49 50 51 54 57 60 61 60 59 57 56 54 52 51 52 52 50 52 53 56 62 58 50 48 45 38 33 30
34 35 36 35 34 32 31 31 32 33 35 37 40 43 45 46 48 49 49 51 53 57 58 59 59 56 53 50 49 50 53 53 54 55 59 62 53 44 40 36 31 26 23 22
31 33 33 33 31 32 33 34 35 37 38 40 43 46 48 50 50 50 51 52 54 57 58 57 53 50 50 50 50 52 53 54 56 57 53 43 33 30 29 24 20 19 18 17
32 31 31 31 31 32 36 38 39 41 44 46 48 50 51 48 46 47 49 51 54 57 54 49 46 48 50 51 53 52 50 50 49 43 32 25 25 21 16 15 15 16 15 14
32 31 30 31 32 34 36 38 40 43 46 48 50 49 47 46 47 48 48 52 55 55 50 44 45 46 47 47 47 44 42 42 38 29 23 19 13 10 11 13 14 13 15 18
30 30 31 32 33 35 38 39 41 45 48 47 48 48 48 48 47 47 47 49 49 46 43 44 46 46 45 42 41 41 39 32 23 15 9 6 6 8 11 14 16 16 16 14
28 29 31 33 36 38 40 43 46 48 49 50 51 51 49 46 44 42 40 38 36 37 39 41 41 41 41 41 38 30 18 8 3 3 4 6 7 9 14 17 15 13 13 13
29 31 33 35 38 40 41 43 45 47 47 46 46 42 38 35 34 34 33 33 34 33 33 36 36 36 33 25 16 6 5 8 7 5 5 8 9 12 14 12 14 16 16 16
30 32 35 37 40 41 41 42 44 44 43 40 37 31 29 29 29 31 31 29 27 28 30 28 24 16 7 5 7 11 12 11 10 8 7 8 9 10 13 13 14 14 14 15
32 34 36 38 39 40 40 41 39 37 35 32 29 27 26 26 26 26 24 23 25 24 18 11 6 10 13 16 16 16 15 14 13 13 12 13 15 15 13 13 12 13 13 14
35 36 38 38 37 38 37 35 32 30 29 28 28 25 23 22 21 22 20 22 18 10 11 17 20 20 21 23 22 21 19 20 22 27 29 27 23 17 15 14 13 15 17 19
36 36 36 35 35 33 29 27 25 23 22 23 24 24 19 17 18 17 16 9 12 23 25 22 22 26 30 34 37 38 37 36 34 32 28 24 20 18 16 17 18 20 21 23

GEFSCGP_500_meanwind_006.txt.gz
Wind_Speed
23 22 23 25 24 24 25 25 24 24 25 25 24 24 24 26 27 26 23 21 21 23 26 27 29 29 28 28 28 28 28 28 28 30 32 35 39 42 45 48 51 53 54 55
23 22 26 27 25 24 25 26 25 25 24 25 27 27 25 24 25 26 26 26 26 29 32 35 34 33 32 33 32 33 34 35 36 38 41 44 46 49 51 53 55 57 58 59
24 25 29 28 27 26 26 26 25 26 26 26 27 26 24 25 26 28 30 31 33 35 38 39 36 34 35 36 36 37 38 40 41 44 48 51 53 54 56 58 59 60 61 64
26 26 28 28 27 27 27 27 27 26 25 27 28 27 26 27 29 32 34 36 37 38 38 37 35 34 35 37 38 40 42 44 46 48 52 54 56 58 60 61 63 65 68 72
25 26 28 27 26 27 28 28 28 27 27 27 28 30 30 32 33 35 36 37 36 35 34 35 35 36 36 37 39 41 43 45 47 50 53 56 60 63 66 69 71 75 78 80
25 26 26 26 26 26 28 28 28 28 28 28 29 31 32 32 33 34 35 35 34 34 35 35 35 35 36 38 39 41 43 46 49 53 58 63 67 70 73 77 79 81 83 83
25 25 26 26 25 26 27 27 26 27 27 27 28 30 31 32 32 32 33 33 34 35 36 35 34 34 35 37 40 44 48 52 56 61 66 71 74 77 80 82 83 84 83 82
25 25 25 24 24 25 26 27 27 28 29 30 30 31 32 32 32 32 33 34 34 32 31 32 34 35 37 41 45 50 54 59 64 69 73 76 79 81 82 83 84 83 81 78
23 22 22 21 21 24 26 28 29 30 33 34 35 35 35 33 34 35 34 33 31 30 31 34 36 39 43 47 52 57 61 65 69 72 76 79 81 83 84 83 80 76 72 67
22 22 21 20 20 22 25 27 28 30 33 35 38 39 39 36 36 34 32 32 32 32 34 37 41 45 50 54 59 62 65 69 73 77 81 83 83 82 78 73 70 67 64 62
25 24 25 26 25 25 26 27 28 29 32 36 38 40 39 37 34 32 31 32 34 36 39 43 47 51 54 58 62 66 71 75 78 81 82 80 76 71 68 66 64 62 61 60
31 30 31 31 30 30 30 29 30 32 36 37 39 40 36 34 31 31 32 35 38 41 44 48 51 55 59 63 67 72 76 78 79 78 75 71 66 62 59 58 58 58 56 55
37 35 33 34 35 34 34 34 35 37 38 39 41 40 33 32 32 33 35 38 41 44 48 52 56 60 64 68 72 75 77 76 73 70 66 59 53 52 52 53 50 47 46 45
40 39 38 37 38 38 39 40 40 40 40 40 37 36 33 33 34 36 38 41 45 48 52 56 60 64 68 72 74 74 73 71 67 60 52 48 47 46 44 40 38 37 36 33
41 40 40 41 42 43 44 43 42 41 40 38 36 35 36 36 37 39 42 45 49 52 56 60 63 67 69 71 71 70 66 60 54 47 44 43 42 38 34 31 30 29 28 27
41 41 42 43 44 45 46 46 45 43 39 36 35 36 37 38 39 41 45 48 52 55 59 62 65 66 67 67 65 60 52 47 44 42 40 37 34 29 27 25 23 24 24 25
42 43 43 43 44 45 47 45 43 39 37 35 35 36 36 37 40 44 47 50 54 57 60 62 63 64 63 60 54 46 42 40 40 37 32 27 23 21 20 19 21 23 24 24
43 43 43 43 43 44 44 41 39 37 36 35 35 35 36 39 43 46 49 52 55 58 59 60 59 57 54 49 44 41 40 36 31 24 18 15 14 15 17 20 22 22 20 17
43 44 45 44 44 45 44 40 37 36 34 33 33 35 39 42 45 48 51 53 55 57 56 54 51 47 44 42 39 36 29 21 13 10 9 9 12 15 17 19 18 18 19 19
40 42 44 45 44 43 42 39 36 34 33 33 35 38 41 43 45 47 50 53 54 51 48 45 42 39 38 33 26 18 11 9 9 9 10 11 13 15 17 17 19 20 22 22
35 38 41 43 42 40 36 31 28 29 31 33 36 38 41 43 45 47 50 50 47 43 40 37 35 31 24 14 9 9 10 11 11 11 12 13 15 17 18 21 23 25 25 25
34 36 38 39 36 30 26 25 26 29 31 34 36 39 41 43 44 46 45 42 38 35 32 29 24 14 6 8 11 12 12 13 13 14 14 15 18 21 24 26 28 28 28 28
33 33 32 30 28 26 25 26 27 30 32 34 36 39 41 42 43 41 37 33 30 28 23 16 6 4 10 13 14 15 16 17 17 17 18 20 22 25 26 28 29 30 31 31
33 30 29 26 24 24 25 27 29 30 32 34 37 39 40 39 37 33 29 25 22 18 10 1 6 12 15 18 20 22 22 21 21 21 22 23 25 27 28 29 30 31 32 32
27 25 23 23 23 25 27 29 30 31 33 35 37 37 35 33 29 25 21 17 13 5 3 8 12 16 21 25 26 25 24 23 23 24 24 25 27 28 30 31 32 33 33 32
22 21 22 23 25 28 29 30 31 32 34 34 33 31 29 25 20 16 13 9 4 6 10 15 21 26 27 26 26 25 25 24 24 24 26 28 29 31 32 34 35 35 35 34

GEFSCGP_500_meanwind_012.txt.gz
Wind_Speed
24 25 26 27 26 25 23 21 21 22 23 22 23 24 23 22 20 20 22 22 23 23 25 26 27 29 30 31 32 31 30 30 31 31 32 33 34 36 38 41 43 45 47 49
26 27 28 29 26 24 23 22 22 23 23 23 25 26 25 25 25 24 24 24 25 26 28 28 29 31 33 35 36 35 34 35 35 36 37 38 40 42 43 44 45 47 49 52
27 29 29 28 26 23 22 22 23 25 24 25 26 26 26 26 27 27 26 27 28 29 30 31 32 34 35 36 37 37 37 38 39 40 41 44 45 46 47 48 50 52 55 58
29 30 29 28 26 23 24 24 24 25 23 20 24 16 27 25 25 26 27 29 30 32 33 34 36 36 36 35 36 38 40 41 43 43 44 46 48 51 52 53 56 59 63 67
30 30 29 28 26 24 25 25 25 25 24 23 24 18 22 26 24 25 27 29 31 33 34 35 36 36 37 37 38 40 42 43 44 45 47 49 52 54 56 59 63 67 70 73
30 29 28 27 26 25 25 24 25 25 23 23 22 20 17 27 24 26 27 28 30 32 33 34 36 37 39 39 40 41 42 44 45 47 50 52 55 58 61 65 69 72 76 79
28 28 27 26 25 25 24 23 23 22 22 21 25 23 22 27 25 26 27 28 30 32 33 35 37 39 40 40 40 41 42 43 46 49 52 55 59 63 67 70 74 77 80 83
29 28 27 26 25 25 23 22 21 20 18 18 27 25 27 25 26 27 28 29 31 33 34 36 37 37 37 37 38 39 42 45 48 52 55 60 64 68 71 74 78 81 84 85
29 27 29 27 26 26 25 25 23 23 23 22 22 28 27 25 26 27 28 29 31 33 34 34 34 34 35 36 39 42 45 49 52 56 60 64 68 71 75 78 81 83 82 79
30 28 29 27 27 27 26 25 27 26 24 23 21 24 24 26 27 29 31 32 33 33 32 32 33 34 37 40 43 46 50 53 57 61 65 69 73 76 79 80 80 78 73 65
32 31 31 30 29 27 27 27 26 24 23 23 21 22 30 30 31 33 34 35 34 33 33 34 36 38 41 45 48 51 55 58 62 67 71 74 77 79 79 76 71 64 55 50
35 33 31 35 32 29 29 28 27 26 27 27 25 27 32 33 34 36 37 37 35 35 35 37 40 43 46 49 52 56 60 65 69 73 76 78 78 76 71 63 55 48 45 43
39 38 38 40 37 34 32 28 26 26 27 29 28 30 35 35 37 39 40 39 38 38 39 41 43 46 49 52 57 61 66 70 73 76 76 75 70 63 55 48 42 40 38 37
43 43 43 40 34 33 32 30 28 28 29 31 32 35 36 38 40 41 40 40 39 40 42 44 46 48 52 56 61 66 69 72 73 71 66 60 52 45 40 36 34 33 31 31
46 47 46 43 39 39 38 36 34 33 33 34 37 39 39 40 41 41 41 41 41 43 44 45 47 51 56 60 64 67 69 67 62 55 48 41 35 31 28 27 26 26 27 28
48 49 46 45 44 42 42 41 39 37 36 36 38 40 39 41 41 40 40 41 42 43 44 46 50 54 58 61 63 64 59 52 45 38 32 27 24 22 21 22 23 24 25 26
48 48 47 48 46 44 45 43 40 37 37 37 39 39 39 40 40 40 40 41 41 42 44 48 52 56 59 60 58 52 44 37 30 26 22 20 19 19 20 22 23 24 26 28
42 44 45 46 44 43 47 40 38 37 37 37 38 37 38 39 39 40 40 39 39 41 46 50 54 56 57 53 46 38 30 23 20 18 18 18 19 21 23 24 26 28 29 29
39 39 40 40 39 42 40 36 35 35 36 36 36 36 37 37 37 38 36 36 39 43 47 51 54 53 48 40 31 22 17 16 16 16 18 20 22 24 26 28 29 29 30 30
38 37 36 34 34 36 35 33 34 35 36 34 34 34 34 34 34 35 33 36 40 44 48 51 49 42 34 25 17 13 13 13 15 17 20 22 25 27 29 30 31 32 33 32
40 38 37 35 34 35 33 32 33 34 34 32 32 32 31 30 30 31 33 37 41 45 47 44 37 28 20 13 10 9 10 12 15 18 21 24 27 29 32 34 34 35 34 33
38 37 36 36 34 33 30 30 31 31 31 30 29 28 27 26 27 30 34 38 42 44 40 33 24 16 9 6 5 7 10 14 17 20 23 26 29 32 35 36 35 34 33 31
37 37 35 33 31 29 28 28 28 28 28 27 25 24 23 24 27 30 35 39 41 37 28 19 11 4 1 4 6 9 12 15 19 22 25 29 32 35 38 38 36 34 32 30
24 23 24 26 26 26 26 26 26 26 25 24 23 22 22 24 28 32 36 37 33 24 15 7 2 4 7 8 9 11 14 17 20 23 27 31 35 38 40 40 38 35 32 30
20 22 24 25 26 27 27 26 25 25 24 22 21 21 23 26 30 33 34 30 21 12 5 5 9 11 10 9 10 13 15 17 20 24 28 32 36 39 40 40 39 36 32 30
23 25 26 27 28 28 28 27 25 23 21 20 20 22 25 27 30 31 28 19 10 6 9 13 14 13 11 10 11 13 15 17 20 24 28 32 35 38 40 40 39 36 33 31

GEFSCGP_500_meanwind_018.txt.gz
Wind_Speed
27 28 27 25 23 21 18 17 17 15 17 22 25 24 21 26 26 24 22 24 29 30 29 30 34 36 35 40 37 46 44 41 41 41 41 40 40 41 43 45 47 49 51 52
29 28 24 24 22 20 21 23 23 22 22 26 29 25 25 30 28 27 26 27 31 33 34 35 37 39 40 42 44 47 48 48 48 48 47 47 47 48 48 48 50 51 51 52
27 23 20 23 24 24 27 26 23 22 19 25 31 25 27 32 28 26 25 27 30 33 35 36 36 38 40 42 44 46 48 50 51 52 51 51 52 53 53 54 54 54 54 56
25 22 23 26 26 27 28 24 22 23 22 23 27 23 25 35 33 29 27 28 30 30 32 35 36 37 39 41 44 46 48 49 50 51 52 53 54 55 56 57 58 59 60 62
24 23 26 29 29 28 26 22 21 22 24 26 25 25 26 36 38 33 29 28 28 31 33 35 37 38 40 41 43 45 46 48 49 50 51 52 53 55 57 59 61 62 65 68
24 23 26 27 28 29 26 24 25 25 25 28 26 25 29 38 40 33 28 28 32 37 38 37 38 39 40 41 42 44 45 46 47 48 49 50 52 55 57 60 63 65 68 71
23 24 26 28 28 27 27 26 26 26 26 26 23 25 32 42 42 36 34 36 39 40 39 38 37 37 38 39 41 42 42 43 44 46 48 50 53 56 59 62 65 68 71 75
21 24 23 28 28 26 27 26 26 24 21 19 20 28 38 39 39 39 38 38 40 40 38 37 37 38 38 39 39 40 41 42 44 47 49 52 55 57 61 65 69 72 75 77
23 22 20 26 28 25 25 26 23 24 25 25 25 29 32 34 35 36 38 40 40 38 38 39 39 39 40 40 40 40 42 44 47 50 52 55 58 61 65 68 71 71 71 70
25 27 23 20 27 27 23 22 22 25 28 29 28 30 35 35 35 37 39 39 39 39 41 43 42 41 41 41 41 43 45 47 50 52 55 58 61 64 66 67 64 61 58 54
30 31 30 24 27 28 28 27 29 28 27 29 29 33 37 35 34 36 38 38 38 41 44 45 44 43 43 43 44 45 47 50 52 55 58 60 62 63 61 57 52 48 45 42
34 35 37 34 30 33 33 29 27 31 32 30 28 34 39 38 38 39 38 39 42 46 48 48 47 46 45 46 47 48 50 52 54 57 60 61 60 56 50 45 42 40 38 37
40 39 41 39 37 35 35 30 29 29 31 33 30 36 36 37 38 40 43 43 44 46 47 48 48 47 47 48 49 51 52 54 56 59 59 57 50 44 40 39 38 38 38 38
47 47 47 44 39 35 38 37 35 33 35 34 32 36 37 38 40 41 41 42 44 45 47 48 47 47 48 49 50 52 53 55 58 57 53 45 39 36 36 36 36 37 38 39
54 54 53 50 44 39 38 40 40 40 38 35 35 39 38 39 40 39 39 40 42 45 47 47 47 48 48 49 50 51 53 56 54 49 41 35 33 33 33 34 35 37 39 40
58 61 60 58 53 45 43 41 43 39 37 37 38 43 42 42 41 39 40 43 46 46 46 46 48 49 49 49 50 51 54 52 46 39 33 30 30 30 31 33 35 38 40 42
53 59 61 63 57 49 49 47 45 40 35 40 41 39 38 39 41 43 45 47 46 45 45 47 48 48 48 48 49 52 50 43 36 30 27 27 27 28 30 34 37 39 41 42
49 54 54 55 53 53 53 51 49 44 42 44 45 39 36 41 44 45 45 44 43 43 45 47 47 46 46 46 48 48 41 33 27 24 24 24 26 29 32 35 39 41 42 43
48 51 51 49 48 49 53 50 47 49 48 48 48 48 47 47 46 46 44 41 42 43 45 45 45 43 44 46 45 39 30 24 22 21 22 24 27 30 34 38 41 42 43 42
47 49 50 49 48 50 52 52 51 48 49 51 52 51 49 46 46 45 42 41 42 42 42 42 40 40 42 43 37 28 22 19 19 20 22 25 29 33 37 41 43 43 43 42
39 45 49 46 41 44 47 48 48 49 48 46 45 44 44 44 43 43 42 41 40 39 38 36 37 39 40 35 26 19 17 16 18 20 24 28 32 36 40 43 43 43 42 41
33 35 42 45 44 42 38 42 47 42 36 34 34 35 36 37 38 39 38 37 36 34 33 34 36 36 32 24 17 14 14 16 19 22 27 31 36 40 42 43 42 41 41 40
33 33 34 38 42 42 41 40 39 39 36 35 34 33 32 33 33 33 33 33 31 30 31 33 34 30 22 15 12 12 13 17 21 25 30 34 38 41 42 41 40 40 41 40
24 28 31 33 37 38 37 35 31 30 31 32 31 30 29 29 29 29 28 27 27 27 30 31 28 20 13 10 9 11 14 19 23 28 32 37 40 41 41 40 40 40 41 40
20 21 25 28 31 33 30 27 26 26 27 27 27 27 26 27 26 26 24 24 25 27 28 26 18 11 8 7 8 11 16 21 26 30 34 38 40 40 40 40 41 40 40 39
18 21 23 25 26 25 24 23 22 23 24 24 24 24 24 24 23 22 21 22 24 26 23 16 10 8 6 6 9 13 18 23 27 32 36 38 38 39 39 41 40 40 39 38

GEFSCGP_500_meanwind_024.txt.gz
Wind_Speed
32 32 27 25 26 24 24 23 21 20 17 16 17 20 23 26 28 29 32 34 35 36 36 35 35 34 34 35 36 37 36 36 36 36 37 37 38 38 39 40 41 42 43 44
34 31 26 29 29 27 26 25 24 22 19 17 17 17 22 27 31 33 34 35 35 35 34 33 33 33 34 35 35 36 36 36 37 38 38 39 40 41 42 43 44 45 46 47
33 27 29 31 30 28 26 25 25 25 23 22 20 21 23 29 33 35 36 35 34 32 31 31 32 33 33 34 34 35 36 37 39 40 41 42 43 45 46 47 48 49 50 52
32 28 31 32 31 29 26 23 24 26 28 28 27 28 29 33 36 37 37 35 32 30 30 32 34 33 33 33 34 35 37 38 40 42 44 45 47 48 49 51 52 54 56 58
28 26 29 31 29 28 26 23 24 27 30 32 33 35 35 38 40 39 37 35 33 33 33 35 35 35 34 35 35 36 39 41 44 46 47 48 50 51 53 55 56 59 61 63
25 25 29 29 29 27 24 24 26 30 33 35 33 37 40 41 41 40 39 38 37 36 37 38 38 38 38 38 38 38 41 44 46 48 50 51 53 54 56 58 60 62 64 65
25 26 27 28 29 28 27 28 31 34 35 35 30 36 39 40 42 41 41 40 39 39 41 42 41 42 42 41 40 40 43 46 48 50 52 53 55 56 58 60 62 63 65 65
28 28 26 26 27 26 27 30 32 34 33 30 30 34 35 35 38 38 39 40 40 41 42 44 45 45 43 41 41 42 44 46 49 51 52 54 56 58 60 61 62 63 63 62
29 30 26 27 26 26 27 29 29 33 33 33 32 33 35 34 33 34 36 37 36 36 38 41 44 43 41 41 42 43 44 48 50 52 53 55 57 59 60 61 63 61 58 54
30 31 28 29 31 31 31 30 30 34 35 36 36 36 37 36 35 34 34 34 34 33 33 34 37 39 40 40 41 43 45 49 52 53 56 58 60 60 60 61 59 54 50 45
35 35 29 31 35 32 30 30 32 35 36 36 36 34 32 36 38 40 41 40 39 38 37 37 38 40 40 40 41 43 47 51 53 56 59 61 61 60 60 58 52 47 44 40
40 40 37 33 35 35 33 30 29 33 35 35 37 35 32 35 38 40 41 41 41 40 40 39 38 39 39 40 41 45 50 53 56 59 61 61 59 59 58 52 47 42 39 37
43 44 43 38 34 37 39 35 32 31 32 35 39 39 37 38 40 41 42 42 43 43 43 41 39 38 39 40 43 48 52 55 58 61 61 60 59 58 53 46 41 38 37 38
49 49 48 47 41 39 42 43 40 37 38 39 42 42 40 40 40 41 42 43 45 45 44 42 39 37 38 42 46 50 54 58 60 61 60 58 57 54 46 41 39 38 38 40
52 54 54 53 50 47 45 46 46 45 44 44 43 43 41 41 42 42 43 44 45 44 42 39 36 36 39 43 48 53 56 59 60 60 57 57 54 47 41 39 38 39 41 44
51 56 58 58 57 55 53 50 50 51 51 50 48 46 45 46 45 43 43 43 41 40 36 33 33 36 41 46 51 55 58 59 58 57 55 54 48 42 39 38 39 42 46 49
45 51 57 59 60 61 61 55 54 54 55 56 55 52 49 48 47 46 45 44 44 39 35 33 34 38 44 49 53 55 56 56 56 54 53 48 42 39 38 39 42 46 49 52
43 46 51 55 57 62 60 58 59 58 58 58 59 57 55 52 49 47 46 45 41 38 34 35 39 42 45 49 51 52 53 53 52 51 47 42 38 37 39 42 46 49 51 52
41 42 45 49 52 56 55 55 55 56 59 59 60 61 60 58 54 51 50 47 40 37 35 37 39 42 45 47 48 49 50 50 48 46 41 37 36 38 41 45 47 49 51 51
35 37 41 44 48 51 50 50 49 49 51 52 55 57 58 58 56 53 49 45 41 36 34 36 39 41 43 45 45 46 46 46 44 40 36 35 37 40 43 45 47 48 49 49
31 34 37 40 44 46 46 45 43 43 43 42 42 44 45 47 47 45 42 37 35 34 33 35 38 40 41 41 41 42 43 41 37 33 33 35 38 41 43 44 45 46 47 47
28 31 34 37 41 43 42 42 41 38 36 36 35 36 36 35 36 34 33 31 29 29 30 33 35 36 37 38 39 39 37 34 31 31 33 36 39 40 42 43 43 44 44 45
23 25 27 30 33 34 35 36 36 35 33 31 31 32 31 28 27 26 27 24 23 26 29 31 32 33 33 35 35 33 30 28 29 31 34 37 38 39 40 41 42 42 43 43
18 19 20 21 21 21 21 23 24 26 25 22 21 22 20 20 21 22 21 20 22 25 26 28 29 29 31 31 29 26 25 26 29 32 35 36 37 38 38 39 40 41 42 41
12 11 11 11 10 8 9 11 13 14 14 15 14 14 14 16 17 17 18 19 21 23 24 25 26 27 27 25 22 21 23 26 30 32 34 36 36 36 37 37 38 39 40 39
8 6 5 6 6 5 4 6 7 8 9 9 10 12 13 14 15 15 16 18 20 21 21 22 23 23 20 18 17 20 23 27 30 32 34 35 35 36 36 36 37 38 38 37

GEFSCGP_500_meanwind_030.txt.gz
Wind_Speed
33 34 32 31 34 36 36 35 33 29 31 35 36 36 34 34 33 32 30 27 24 22 23 24 26 27 27 27 27 27 28 28 29 29 29 30 32 33 34 35 35 35 36 38
34 32 31 34 37 38 38 37 34 30 33 38 39 39 37 36 34 33 31 29 26 25 25 26 27 28 29 29 29 30 31 33 34 35 35 36 37 38 38 39 39 39 40 42
35 30 32 37 38 39 39 37 34 32 35 40 42 42 40 38 37 34 32 29 27 26 26 28 29 30 30 32 33 33 35 38 39 40 40 41 41 41 40 41 42 43 44 47
33 30 33 36 38 39 38 35 35 35 38 41 44 46 43 41 40 37 33 29 28 28 28 30 32 32 33 34 35 37 39 42 43 44 45 45 43 42 42 43 45 46 48 51
30 28 32 36 36 38 36 35 38 39 41 44 46 49 46 43 41 37 34 31 30 30 31 33 34 35 36 36 37 40 42 45 46 48 48 46 44 43 43 44 47 49 52 55
30 29 32 34 34 37 36 37 40 42 43 46 44 48 49 45 41 38 36 34 34 34 35 36 36 37 37 38 40 42 44 45 47 48 47 44 43 42 44 46 49 52 56 59
31 30 30 31 33 35 36 36 39 41 43 44 41 46 47 43 40 38 37 36 36 37 38 38 38 37 37 38 40 42 43 44 45 46 45 43 42 44 46 48 51 55 58 60
34 32 29 30 29 30 33 35 37 40 41 41 41 44 42 39 38 37 37 37 37 37 37 38 36 35 36 37 39 41 42 43 44 44 43 43 43 45 47 50 54 57 59 59
34 32 28 29 28 29 31 34 35 39 41 43 43 43 41 37 36 36 35 34 34 34 34 34 33 33 34 36 39 42 44 45 45 45 44 44 44 46 49 52 56 59 59 57
36 33 29 29 29 29 30 32 36 39 41 44 44 42 40 36 34 34 34 33 32 33 33 34 34 34 35 38 41 43 46 48 47 46 46 45 46 48 51 55 58 59 58 56
37 36 30 30 30 28 28 31 35 39 42 45 47 45 40 37 34 34 33 33 32 32 33 35 36 37 38 40 43 46 49 50 49 48 47 46 47 49 54 57 58 57 55 53
40 39 35 32 31 30 31 33 35 39 42 45 49 47 40 38 36 35 35 35 34 34 35 36 37 39 40 43 45 48 51 51 50 49 47 47 48 52 55 56 55 54 52 50
43 42 40 36 34 34 34 35 37 39 42 45 48 47 41 39 37 35 35 35 36 38 39 40 41 42 44 45 48 49 51 51 49 46 45 47 50 52 53 52 52 51 50 48
46 46 44 42 40 39 38 38 39 40 43 46 48 47 44 42 41 40 39 38 38 39 40 41 43 44 46 47 48 49 47 45 43 43 44 47 49 50 50 50 50 49 48 46
50 50 50 49 47 46 44 43 44 44 45 47 48 48 47 47 47 45 44 43 42 43 43 44 44 47 47 46 48 45 43 42 43 45 46 47 48 48 48 49 49 47 45 44
51 54 54 54 53 52 50 47 48 48 49 50 49 49 47 48 48 48 47 47 46 46 46 46 47 47 46 46 44 43 42 43 45 45 45 46 46 47 48 48 46 45 44 45
45 49 52 54 55 56 56 52 53 53 54 54 54 52 52 52 51 51 50 49 49 49 49 50 50 49 47 44 44 44 44 44 43 43 44 45 46 47 46 45 44 44 45 47
39 42 46 49 51 53 52 52 51 52 52 53 54 54 54 55 55 55 54 53 52 51 51 51 50 48 47 45 43 42 43 42 42 42 43 44 45 45 44 44 44 45 47 48
38 40 42 44 47 48 48 49 50 50 50 49 50 50 51 52 53 54 54 53 52 52 52 50 48 46 45 43 41 41 41 40 41 42 43 43 43 43 43 43 45 47 48 48
37 38 40 42 44 45 45 46 46 48 46 43 44 45 46 47 48 48 48 48 49 49 48 47 45 44 42 40 39 38 38 39 40 41 42 41 41 41 43 44 46 46 47 47
34 35 36 37 39 40 41 41 41 41 40 39 39 39 40 40 41 42 43 42 42 41 41 40 40 38 36 36 35 35 36 37 39 39 39 39 40 41 43 45 45 45 46 46
29 30 31 32 33 33 34 35 36 36 35 34 34 34 34 34 34 35 35 35 34 35 35 34 33 31 30 30 31 32 34 35 36 36 36 38 40 42 44 44 44 43 43 43
25 26 26 27 26 27 28 29 29 30 30 29 28 28 28 28 28 28 28 28 29 29 28 26 24 23 24 26 28 30 32 32 32 33 36 38 40 42 42 42 42 41 41 41
22 22 22 22 22 22 23 23 24 24 23 21 21 21 22 22 22 22 21 21 21 20 19 18 18 19 21 24 26 27 28 29 30 33 36 38 40 40 40 40 39 38 38 37
19 19 18 17 17 17 17 17 16 16 15 15 15 16 16 15 15 17 16 14 13 12 13 14 15 17 19 22 23 24 25 28 31 34 36 38 38 38 38 37 36 35 34 33
16 16 14 12 12 11 10 10 8 9 9 9 9 9 11 12 12 11 10 10 9 9 10 11 13 16 18 20 20 22 24 28 31 34 35 36 37 37 36 35 34 32 31 31